| time (UTC) | temp F | wind direction | speed MPH | gust MPH | rain 1hr in | rain 24hr in | rain mn in | humidity % | barometer mb |
| 20260906224516 | 90 | 313 | 3.0 | 11.0 | 0.00 | 0.00 | 0.00 | 18 | 1017.6 |
| 20260906223615 | 89 | 306 | 2.0 | 8.0 | 0.00 | 0.00 | 0.00 | 19 | 1017.6 |
| 20260906222715 | 88 | 288 | 3.0 | 11.0 | 0.00 | 0.00 | 0.00 | 19 | 1017.6 |
| 20260906221816 | 88 | 304 | 4.0 | 9.0 | 0.00 | 0.00 | 0.00 | 19 | 1017.6 |
| 20260906220916 | 88 | 294 | 5.0 | 14.0 | 0.00 | 0.00 | 0.00 | 19 | 1017.6 |
| 20260906220037 | 88 | 342 | 6.0 | 15.0 | 0.00 | 0.00 | 0.00 | 19 | 1017.6 |
| 20260906215436 | 88 | 14 | 5.0 | 10.0 | 0.00 | 0.00 | 0.00 | 20 | 1017.6 |
| 20260906214516 | 89 | 28 | 3.0 | 9.0 | 0.00 | 0.00 | 0.00 | 21 | 1017.6 |
| 20260906213615 | 89 | 21 | 4.0 | 10.0 | 0.00 | 0.00 | 0.00 | 20 | 1017.6 |
| 20260906212716 | 91 | 21 | 5.0 | 10.0 | 0.00 | 0.00 | 0.00 | 19 | 1017.6 |
| 20260906211837 | 92 | 19 | 5.0 | 10.0 | 0.00 | 0.00 | 0.00 | 18 | 1017.6 |
| 20260906210915 | 92 | 32 | 4.0 | 9.0 | 0.00 | 0.00 | 0.00 | 18 | 1017.6 |
| 20260906210015 | 92 | 29 | 5.0 | 12.0 | 0.00 | 0.00 | 0.00 | 18 | 1017.6 |
| 20260906205436 | 91 | 32 | 5.0 | 11.0 | 0.00 | 0.00 | 0.00 | 19 | 1017.6 |
| 20260906204515 | 89 | 35 | 4.0 | 9.0 | 0.00 | 0.00 | 0.00 | 19 | 1017.6 |
| 20260906203616 | 88 | 37 | 4.0 | 7.0 | 0.00 | 0.00 | 0.00 | 21 | 1017.6 |
| 20260906202736 | 88 | 39 | 4.0 | 10.0 | 0.00 | 0.00 | 0.00 | 20 | 1017.6 |
| 20260906201815 | 88 | 44 | 3.0 | 7.0 | 0.00 | 0.00 | 0.00 | 20 | 1017.6 |
| 20260906200916 | 88 | 49 | 2.0 | 7.0 | 0.00 | 0.00 | 0.00 | 20 | 1017.6 |
| 20260906200016 | 88 | 46 | 3.0 | 7.0 | 0.00 | 0.00 | 0.00 | 19 | 1017.6 |
| 20260906195415 | 88 | 49 | 4.0 | 7.0 | 0.00 | 0.00 | 0.00 | 20 | 1017.6 |
| 20260906194516 | 88 | 51 | 3.0 | 7.0 | 0.00 | 0.00 | 0.00 | 19 | 1017.6 |
| 20260906193616 | 87 | 50 | 4.0 | 7.0 | 0.00 | 0.00 | 0.00 | 20 | 1017.6 |
| 20260906192715 | 88 | 26 | 2.0 | 6.0 | 0.00 | 0.00 | 0.00 | 20 | 1017.6 |
| 20260906191815 | 89 | 27 | 3.0 | 9.0 | 0.00 | 0.00 | 0.00 | 20 | 1017.6 |
| 20260906190915 | 89 | 38 | 2.0 | 9.0 | 0.00 | 0.00 | 0.00 | 18 | 1017.6 |
| 20260906190015 | 88 | 49 | 2.0 | 6.0 | 0.00 | 0.00 | 0.00 | 17 | 1017.6 |
| 20260906185416 | 88 | 55 | 3.0 | 6.0 | 0.00 | 0.00 | 0.00 | 16 | 1017.6 |
| 20260906184537 | 88 | 57 | 1.0 | 6.0 | 0.00 | 0.00 | 0.00 | 18 | 1017.6 |
| 20260906183616 | 87 | 26 | 1.0 | 5.0 | 0.00 | 0.00 | 0.00 | 19 | 1017.6 |
| 20260906182715 | 87 | 24 | 2.0 | 6.0 | 0.00 | 0.00 | 0.00 | 21 | 1017.6 |
| 20260906181815 | 87 | 71 | 1.0 | 5.0 | 0.00 | 0.00 | 0.00 | 20 | 1017.6 |
| 20260906180915 | 87 | 73 | 1.0 | 4.0 | 0.00 | 0.00 | 0.00 | 21 | 1017.6 |
| 20260906180015 | 86 | 73 | 0.0 | 5.0 | 0.00 | 0.00 | 0.00 | 22 | 1017.6 |
| 20260906175437 | 86 | 73 | 0.0 | 3.0 | 0.00 | 0.00 | 0.00 | 22 | 1017.6 |
| 20260906174516 | 84 | 73 | 0.0 | 3.0 | 0.00 | 0.00 | 0.00 | 23 | 1017.6 |
| 20260906173615 | 83 | 73 | 1.0 | 5.0 | 0.00 | 0.00 | 0.00 | 25 | 1017.6 |
| 20260906172716 | 82 | 73 | 2.0 | 7.0 | 0.00 | 0.00 | 0.00 | 24 | 1017.6 |
| 20260906171837 | 82 | 74 | 3.0 | 9.0 | 0.00 | 0.00 | 0.00 | 24 | 1017.6 |
| 20260906170915 | 82 | 83 | 2.0 | 7.0 | 0.00 | 0.00 | 0.00 | 23 | 1017.6 |
| 20260906170016 | 82 | 72 | 2.0 | 10.0 | 0.00 | 0.00 | 0.00 | 25 | 1017.6 |
| 20260906165415 | 82 | 57 | 0.0 | 5.0 | 0.00 | 0.00 | 0.00 | 23 | 1017.6 |
| 20260906164516 | 81 | 50 | 2.0 | 6.0 | 0.00 | 0.00 | 0.00 | 25 | 1017.6 |
| 20260906163637 | 80 | 65 | 2.0 | 6.0 | 0.00 | 0.00 | 0.00 | 25 | 1017.6 |
| 20260906162716 | 79 | 55 | 2.0 | 11.0 | 0.00 | 0.00 | 0.00 | 25 | 1017.6 |
| 20260906161837 | 78 | 55 | 0.0 | 4.0 | 0.00 | 0.00 | 0.00 | 27 | 1017.6 |
| 20260906160915 | 76 | 202 | 0.0 | 5.0 | 0.00 | 0.00 | 0.00 | 30 | 1017.6 |
| 20260906160016 | 74 | 205 | 3.0 | 10.0 | 0.00 | 0.00 | 0.00 | 29 | 1017.6 |
| 20260906155415 | 74 | 207 | 3.0 | 10.0 | 0.00 | 0.00 | 0.00 | 30 | 1017.6 |
| 20260906154516 | 74 | 212 | 3.0 | 10.0 | 0.00 | 0.00 | 0.00 | 30 | 1017.6 |
| 20260906153616 | 73 | 192 | 2.0 | 9.0 | 0.00 | 0.00 | 0.00 | 30 | 1017.6 |
| 20260906152737 | 72 | 200 | 4.0 | 12.0 | 0.00 | 0.00 | 0.00 | 32 | 1017.6 |
| 20260906151816 | 71 | 199 | 5.0 | 12.0 | 0.00 | 0.00 | 0.00 | 33 | 1017.6 |
| 20260906150916 | 70 | 197 | 6.0 | 11.0 | 0.00 | 0.00 | 0.00 | 34 | 1017.6 |
| 20260906150016 | 71 | 197 | 2.0 | 11.0 | 0.00 | 0.00 | 0.00 | 34 | 1017.6 |
| 20260906145416 | 71 | 65 | 2.0 | 8.0 | 0.00 | 0.00 | 0.00 | 35 | 1017.6 |
| 20260906144516 | 71 | 85 | 2.0 | 7.0 | 0.00 | 0.00 | 0.00 | 35 | 1017.6 |
| 20260906143616 | 70 | 0 | 0.0 | 2.0 | 0.00 | 0.00 | 0.00 | 36 | 1017.6 |
| 20260906142716 | 69 | 223 | 0.0 | 5.0 | 0.00 | 0.00 | 0.00 | 36 | 1017.6 |
| 20260906141815 | 68 | 222 | 0.0 | 5.0 | 0.00 | 0.00 | 0.00 | 37 | 1017.6 |
| 20260906140916 | 67 | 212 | 2.0 | 10.0 | 0.00 | 0.00 | 0.00 | 37 | 1017.6 |
| 20260906140016 | 66 | 227 | 1.0 | 6.0 | 0.00 | 0.00 | 0.00 | 39 | 1017.6 |
| 20260906135416 | 65 | 234 | 2.0 | 6.0 | 0.00 | 0.00 | 0.00 | 40 | 1017.6 |
| 20260906134516 | 64 | 0 | 0.0 | 0.0 | 0.00 | 0.00 | 0.00 | 41 | 1017.6 |
| 20260906133616 | 65 | 234 | 1.0 | 5.0 | 0.00 | 0.00 | 0.00 | 40 | 1017.6 |
| 20260906132716 | 66 | 234 | 2.0 | 9.0 | 0.00 | 0.00 | 0.00 | 39 | 1017.6 |
| 20260906131816 | 66 | 233 | 2.0 | 10.0 | 0.00 | 0.00 | 0.00 | 38 | 1017.6 |
| 20260906130916 | 64 | 237 | 2.0 | 10.0 | 0.00 | 0.00 | 0.00 | 39 | 1017.6 |
| 20260906130016 | 64 | 0 | 0.0 | 1.0 | 0.00 | 0.00 | 0.00 | 43 | 1017.6 |
| 20260906125416 | 64 | 239 | 0.0 | 1.0 | 0.00 | 0.00 | 0.00 | 42 | 1017.6 |
| 20260906124516 | 64 | 0 | 0.0 | 0.0 | 0.00 | 0.00 | 0.00 | 42 | 1017.6 |
| 20260906123616 | 65 | 238 | 1.0 | 6.0 | 0.00 | 0.00 | 0.00 | 41 | 1017.6 |
| 20260906122716 | 65 | 243 | 1.0 | 8.0 | 0.00 | 0.00 | 0.00 | 40 | 1017.6 |
| 20260906121816 | 64 | 246 | 1.0 | 5.0 | 0.00 | 0.00 | 0.00 | 42 | 1017.6 |
| 20260906120916 | 63 | 246 | 0.0 | 5.0 | 0.00 | 0.00 | 0.00 | 44 | 1017.6 |
| 20260906120016 | 62 | 0 | 0.0 | 0.0 | 0.00 | 0.00 | 0.00 | 47 | 1017.6 |
| 20260906115416 | 62 | 0 | 0.0 | 0.0 | 0.00 | 0.00 | 0.00 | 49 | 1017.6 |
| 20260906114516 | 61 | 0 | 0.0 | 1.0 | 0.00 | 0.00 | 0.00 | 49 | 1017.6 |
| 20260906113637 | 60 | 0 | 0.0 | 1.0 | 0.00 | 0.00 | 0.00 | 51 | 1017.6 |
| 20260906112716 | 60 | 0 | 0.0 | 0.0 | 0.00 | 0.00 | 0.00 | 55 | 1017.6 |
| 20260906111816 | 60 | 0 | 0.0 | 0.0 | 0.00 | 0.00 | 0.00 | 55 | 1017.6 |
| 20260906110916 | 60 | 0 | 0.0 | 0.0 | 0.00 | 0.00 | 0.00 | 56 | 1017.6 |
| 20260906110037 | 60 | 0 | 0.0 | 0.0 | 0.00 | 0.00 | 0.00 | 54 | 1017.6 |
| 20260906105437 | 60 | 0 | 0.0 | 0.0 | 0.00 | 0.00 | 0.00 | 55 | 1017.6 |
| 20260906104516 | 60 | 0 | 0.0 | 0.0 | 0.00 | 0.00 | 0.00 | 55 | 1017.6 |
| 20260906103616 | 60 | 0 | 0.0 | 0.0 | 0.00 | 0.00 | 0.00 | 56 | 1017.6 |
| 20260906102737 | 60 | 0 | 0.0 | 0.0 | 0.00 | 0.00 | 0.00 | 57 | 1017.6 |
| 20260906101816 | 60 | 0 | 0.0 | 0.0 | 0.00 | 0.00 | 0.00 | 55 | 1017.6 |
| 20260906100937 | 60 | 0 | 0.0 | 0.0 | 0.00 | 0.00 | 0.00 | 56 | 1017.6 |
| 20260906100016 | 61 | 0 | 0.0 | 0.0 | 0.00 | 0.00 | 0.00 | 55 | 1017.6 |
| 20260906095416 | 61 | 0 | 0.0 | 0.0 | 0.00 | 0.00 | 0.00 | 54 | 1017.6 |
| 20260906094516 | 62 | 0 | 0.0 | 0.0 | 0.00 | 0.00 | 0.00 | 52 | 1017.6 |
| 20260906093616 | 62 | 0 | 0.0 | 0.0 | 0.00 | 0.00 | 0.00 | 51 | 1017.6 |
| 20260906092716 | 62 | 0 | 0.0 | 0.0 | 0.00 | 0.00 | 0.00 | 50 | 1017.6 |
| 20260906091837 | 63 | 0 | 0.0 | 0.0 | 0.00 | 0.00 | 0.00 | 49 | 1017.6 |
| 20260906090916 | 63 | 0 | 0.0 | 0.0 | 0.00 | 0.00 | 0.00 | 47 | 1017.6 |
| 20260906090016 | 63 | 0 | 0.0 | 0.0 | 0.00 | 0.00 | 0.00 | 48 | 1017.6 |
| 20260906085416 | 63 | 0 | 0.0 | 0.0 | 0.00 | 0.00 | 0.00 | 47 | 1017.6 |
| 20260906084516 | 63 | 0 | 0.0 | 0.0 | 0.00 | 0.00 | 0.00 | 47 | 1017.6 |
| 20260906083637 | 63 | 0 | 0.0 | 0.0 | 0.00 | 0.00 | 0.00 | 46 | 1017.6 |
| 20260906082716 | 64 | 0 | 0.0 | 0.0 | 0.00 | 0.00 | 0.00 | 47 | 1017.6 |
| 20260906081816 | 64 | 0 | 0.0 | 0.0 | 0.00 | 0.00 | 0.00 | 45 | 1017.6 |
| 20260906080916 | 64 | 246 | 0.0 | 1.0 | 0.00 | 0.00 | 0.00 | 46 | 1017.6 |
| 20260906080016 | 64 | 0 | 0.0 | 0.0 | 0.00 | 0.00 | 0.00 | 47 | 1017.6 |
| 20260906075437 | 64 | 0 | 0.0 | 0.0 | 0.00 | 0.00 | 0.00 | 47 | 1017.6 |
| 20260906074537 | 65 | 0 | 0.0 | 0.0 | 0.00 | 0.00 | 0.00 | 45 | 1017.6 |
| 20260906073616 | 65 | 0 | 0.0 | 0.0 | 0.00 | 0.00 | 0.00 | 45 | 1017.6 |
| 20260906072716 | 66 | 0 | 0.0 | 0.0 | 0.00 | 0.00 | 0.00 | 43 | 1017.6 |
| 20260906071816 | 66 | 0 | 0.0 | 0.0 | 0.00 | 0.00 | 0.00 | 43 | 1017.6 |
| 20260906070916 | 67 | 0 | 0.0 | 0.0 | 0.00 | 0.00 | 0.00 | 43 | 1017.6 |
| 20260906070016 | 67 | 0 | 0.0 | 0.0 | 0.00 | 0.00 | 0.00 | 40 | 1017.6 |
| 20260906065416 | 68 | 0 | 0.0 | 0.0 | 0.00 | 0.00 | 0.00 | 40 | 1017.6 |
| 20260906064516 | 69 | 0 | 0.0 | 0.0 | 0.00 | 0.00 | 0.00 | 38 | 1017.6 |
| 20260906063616 | 70 | 0 | 0.0 | 0.0 | 0.00 | 0.00 | 0.00 | 35 | 1017.6 |
| 20260906062737 | 73 | 0 | 0.0 | 0.0 | 0.00 | 0.00 | 0.00 | 32 | 1017.6 |
| 20260906061816 | 74 | 246 | 1.0 | 4.0 | 0.00 | 0.00 | 0.00 | 24 | 1017.6 |
| 20260906060937 | 73 | 246 | 1.0 | 5.0 | 0.00 | 0.00 | 0.00 | 24 | 1017.6 |
| 20260906060016 | 74 | 0 | 0.0 | 0.0 | 0.00 | 0.00 | 0.00 | 27 | 1017.6 |
| 20260906055416 | 75 | 0 | 0.0 | 0.0 | 0.00 | 0.00 | 0.00 | 25 | 1017.6 |
| 20260906054516 | 76 | 0 | 0.0 | 0.0 | 0.00 | 0.00 | 0.00 | 23 | 1017.6 |
| 20260906053616 | 77 | 0 | 0.0 | 0.0 | 0.00 | 0.00 | 0.00 | 20 | 1017.6 |
| 20260906052716 | 78 | 246 | 0.0 | 2.0 | 0.00 | 0.00 | 0.00 | 20 | 1017.6 |
| 20260906051816 | 78 | 246 | 1.0 | 7.0 | 0.00 | 0.00 | 0.00 | 21 | 1017.6 |
| 20260906050937 | 78 | 246 | 2.0 | 7.0 | 0.00 | 0.00 | 0.00 | 21 | 1017.6 |
| 20260906050016 | 78 | 246 | 3.0 | 7.0 | 0.00 | 0.00 | 0.00 | 21 | 1017.6 |
| 20260906045416 | 78 | 246 | 2.0 | 5.0 | 0.00 | 0.00 | 0.00 | 21 | 1017.6 |
| 20260906044516 | 78 | 246 | 1.0 | 4.0 | 0.00 | 0.00 | 0.00 | 22 | 1017.6 |
| 20260906043616 | 79 | 246 | 1.0 | 7.0 | 0.00 | 0.00 | 0.00 | 21 | 1017.6 |
| 20260906042716 | 79 | 246 | 3.0 | 8.0 | 0.00 | 0.00 | 0.00 | 21 | 1017.6 |
| 20260906041816 | 79 | 246 | 3.0 | 7.0 | 0.00 | 0.00 | 0.00 | 21 | 1017.6 |
| 20260906040937 | 79 | 246 | 2.0 | 5.0 | 0.00 | 0.00 | 0.00 | 22 | 1017.6 |
| 20260906040016 | 79 | 249 | 2.0 | 7.0 | 0.00 | 0.00 | 0.00 | 22 | 1017.6 |
| 20260906035416 | 80 | 250 | 2.0 | 7.0 | 0.00 | 0.00 | 0.00 | 21 | 1017.6 |
| 20260906034516 | 80 | 243 | 1.0 | 8.0 | 0.00 | 0.00 | 0.00 | 20 | 1017.6 |
| 20260906033616 | 80 | 238 | 4.0 | 8.0 | 0.00 | 0.00 | 0.00 | 19 | 1017.6 |
| 20260906032716 | 80 | 238 | 4.0 | 6.0 | 0.00 | 0.00 | 0.00 | 19 | 1017.6 |
| 20260906031837 | 80 | 238 | 3.0 | 8.0 | 0.00 | 0.00 | 0.00 | 19 | 1017.6 |
| 20260906030916 | 81 | 238 | 3.0 | 8.0 | 0.00 | 0.00 | 0.00 | 19 | 1017.6 |
| 20260906030016 | 80 | 239 | 4.0 | 6.0 | 0.00 | 0.00 | 0.00 | 20 | 1017.6 |
| 20260906025416 | 80 | 240 | 4.0 | 6.0 | 0.00 | 0.00 | 0.00 | 21 | 1017.6 |
| 20260906024516 | 81 | 241 | 4.0 | 6.0 | 0.00 | 0.00 | 0.00 | 22 | 1017.6 |
| 20260906023616 | 81 | 241 | 3.0 | 6.0 | 0.00 | 0.00 | 0.00 | 24 | 1017.6 |
| 20260906022716 | 81 | 253 | 3.0 | 8.0 | 0.00 | 0.00 | 0.00 | 26 | 1017.6 |
| 20260906021816 | 81 | 32 | 1.0 | 4.0 | 0.00 | 0.00 | 0.00 | 26 | 1017.6 |
| 20260906020916 | 81 | 32 | 2.0 | 4.0 | 0.00 | 0.00 | 0.00 | 26 | 1017.6 |
| 20260906020016 | 80 | 32 | 1.0 | 4.0 | 0.00 | 0.00 | 0.00 | 27 | 1017.6 |
| 20260906015416 | 80 | 32 | 0.0 | 3.0 | 0.00 | 0.00 | 0.00 | 28 | 1017.6 |
| 20260906014516 | 80 | 0 | 0.0 | 0.0 | 0.00 | 0.00 | 0.00 | 29 | 1017.6 |
| 20260906013616 | 80 | 0 | 0.0 | 0.0 | 0.00 | 0.00 | 0.00 | 29 | 1017.6 |
| 20260906012716 | 81 | 0 | 0.0 | 0.0 | 0.00 | 0.00 | 0.00 | 31 | 1017.6 |
| 20260906011816 | 82 | 0 | 0.0 | 0.0 | 0.00 | 0.00 | 0.00 | 28 | 1017.6 |
| 20260906010916 | 83 | 0 | 0.0 | 0.0 | 0.00 | 0.00 | 0.00 | 26 | 1017.6 |
| 20260906010016 | 85 | 0 | 0.0 | 0.0 | 0.00 | 0.00 | 0.00 | 26 | 1017.6 |
| 20260906005416 | 85 | 0 | 0.0 | 0.0 | 0.00 | 0.00 | 0.00 | 24 | 1017.6 |
| 20260906004516 | 86 | 0 | 0.0 | 1.0 | 0.00 | 0.00 | 0.00 | 24 | 1017.6 |
| 20260906003637 | 86 | 32 | 1.0 | 6.0 | 0.00 | 0.00 | 0.00 | 23 | 1017.6 |
| 20260906002737 | 87 | 33 | 1.0 | 6.0 | 0.00 | 0.00 | 0.00 | 23 | 1017.6 |
| 20260906001816 | 88 | 32 | 1.0 | 6.0 | 0.00 | 0.00 | 0.00 | 23 | 1017.6 |
| 20260906000937 | 89 | 26 | 1.0 | 5.0 | 0.00 | 0.00 | 0.00 | 22 | 1017.6 |
| 20260906000016 | 90 | 23 | 0.0 | 5.0 | 0.00 | 0.00 | 0.00 | 21 | 1017.6 |
| 20260905235437 | 90 | 24 | 1.0 | 5.0 | 0.00 | 0.00 | 0.00 | 21 | 1017.6 |
| 20260905234516 | 91 | 19 | 2.0 | 7.0 | 0.00 | 0.00 | 0.00 | 21 | 1017.6 |
| 20260905233616 | 91 | 19 | 2.0 | 9.0 | 0.00 | 0.00 | 0.00 | 20 | 1017.6 |
| 20260905232716 | 92 | 37 | 0.0 | 4.0 | 0.00 | 0.00 | 0.00 | 20 | 1017.6 |
| 20260905231816 | 91 | 43 | 1.0 | 6.0 | 0.00 | 0.00 | 0.00 | 20 | 1017.6 |
| 20260905230916 | 91 | 4 | 1.0 | 6.0 | 0.00 | 0.00 | 0.00 | 20 | 1017.6 |
| 20260905230016 | 91 | 7 | 2.0 | 9.0 | 0.00 | 0.00 | 0.00 | 21 | 1017.6 |
| 20260905225416 | 91 | 19 | 3.0 | 10.0 | 0.00 | 0.00 | 0.00 | 21 | 1017.6 |